User: anonymous   Login
Location: Cabeza de los Veneras
(40.2000°N, 5.2000°W)
Time: 16:16:28
(UTC+00:00)
Language:

CARTOSAT-1 - Orbit

View from above orbital plane
View from above orbital plane
View from above satellite
View from above satellite

Ground track
Ground track

The orbit data is extracted from the following two-line orbital elements,

1 28649U 05017A   24177.15269677  .00001812  00000-0  20783-3 0  9991
2 28649  97.6132 220.2594 0000657  46.0065 314.1206 14.87051170 36417
Epoch (UTC): 25 June 2024 03:39:53
Eccentricity: 0.0000657
inclination: 97.6132°
perigee height: 607 km
apogee height: 607 km
right ascension of ascending node: 220.2594°
argument of perigee: 46.0065°
revolutions per day: 14.87051170
mean anomaly at epoch: 314.1206°
orbit number at epoch: 3641

The dashed part of the orbit path shows where the satellite is in the earth's shadow,  

DLR